User: anonymous   Login
Location: Unspecified
(0.0000°N, 0.0000°E)
Time: 08:53:30
(UTC+00:00)
Language:

STARLINK-2135 - Orbit

View from above orbital plane
View from above orbital plane
View from above satellite
View from above satellite

Ground track
Ground track

The orbit is defined by the following mean orbital elements,

1 47408U          26145.66668980 +.00000000 +00000-0 +16819-2 0 00000
2 47408  53.1586  39.1665 0001294 115.1072 227.5614 15.31662865    06
Epoch (UTC): 25 May 2026 16:00:01
Eccentricity: 0.0001294
inclination: 53.1586°
perigee height: 470 km
apogee height: 472 km
right ascension of ascending node: 39.1665°
argument of perigee: 115.1072°
revolutions per day: 15.31662865
mean anomaly at epoch: 227.5614°

The dashed part of the orbit path shows where the satellite is in the earth's shadow,  

DLR